Regional Weather Roundup
Issued by NWS Northern Indiana

Home | Current Version | Previous Version | Graphics & Text | Print | Product List | Glossary On
Versions: 1 2 3 4 5 6 7 8 9 10 11 12 13 14 15 16 17 18 19 20 21 22 23 24 25 26 27 28 29 30 31 32 33 34 35 36 37 38 39 40 41 42 43 44 45 46 47 48 49 50
000
ASUS43 KIWX 261500
RWRIWX

KIWX WEATHER ROUNDUP
NATIONAL WEATHER SERVICE NORTHERN INDIANA
1100 AM EDT SUN APR 26 2015

NOTE: "FAIR" INDICATES FEW OR NO CLOUDS BELOW 12,000 FEET WITH NO
SIGNIFICANT WEATHER AND/OR OBSTRUCTIONS TO VISIBILITY.

* THESE STATIONS ARE NOT UNDER NWS QUALITY CONTROL. THEY ALSO MAY NOT
  REPORT WEATHER SUCH AS PRECIPITATION OR FOG.

INZ001>027-261600-
NORTHERN INDIANA

CITY           SKY/WX    TMP DP  RH WIND       PRES   REMARKS
GARY*          SUNNY     45  30  57 NE14      30.03R
KNOX*          SUNNY     48  19  32 NE10      29.97S
SOUTH BEND     SUNNY     51  30  44 NE10G18   29.99R
GOSHEN         SUNNY     49  32  52 NE13      29.96R
MONTICELLO*    SUNNY     47  35  64 NE9       29.96R
WARSAW*        SUNNY     46  32  57 NE10      29.95R
ANGOLA*        SUNNY     46  30  53 VRB7      29.93S
FORT WAYNE     MOSUNNY   49  32  52 NE13      29.93R
PERU/GRISSOM   SUNNY     47  34  60 NE12      29.94R

$$
INZ028>050-261600-
CENTRAL INDIANA

CITY           SKY/WX    TMP DP  RH WIND       PRES   REMARKS
LAFAYETTE      SUNNY     48  34  58 N8        29.95R
KOKOMO*        SUNNY     46  34  61 NE10      29.94R
MUNCIE*        SUNNY     47  35  63 NE12      29.91R
INDIANAPOLIS   MOSUNNY   50  32  50 NE9       29.90R

$$
MIZ043>046-050>051-056>058-064>065-071>073-077>080-261600-
SOUTHWEST LOWER MICHIGAN

CITY           SKY/WX    TMP DP  RH WIND       PRES   REMARKS
BATTLE CREEK   SUNNY     49  27  42 NE8G18    29.96R
BENTON HARBOR  SUNNY     46  33  60 W7        29.99R
COLDWATER*     SUNNY     48  28  45 N8        29.94S
HILLSDALE*     SUNNY     48  28  45 N12       29.92S
HOLLAND        SUNNY     54  26  34 N7        29.99R
GRAND RAPIDS   SUNNY     51  27  39 N7        29.97R
KALAMAZOO      SUNNY     51  27  39 NE9       29.96R
STURGIS*       SUNNY     48  28  46 CALM      29.94S
THREE RIVERS*  FAIR      49  28  43 NE9       29.96S

$$
OHZ001>008-015>018-024>025-261600-
NORTHWEST OHIO

CITY           SKY/WX    TMP DP  RH WIND       PRES   REMARKS
DEFIANCE       SUNNY     51  29  42 NE13      29.92R
FINDLAY        SUNNY     50  33  52 N16G22    29.88R
TOLEDO EXPRESS SUNNY     50  27  40 N9        29.90R
TOLEDO METCALF SUNNY     49  30  48 NE10      29.92R
LIMA           SUNNY     48  36  63 N14       29.88R

$$
AND FOR LAKE MICHIGAN COASTAL AND OPEN LAKE BUOY OBSERVATIONS

STATION/POSITION TEMP    WIND        PRES    VSBY  WAVE
                 AIR SEA DIR/SP/G                  HT/PER
                 (F)     (DEG/KT/KT) (MB)    (MI)  (FT/S)
CALUMET HARBOR    44     360/  9/ 12   N/A
MICHIGAN CITY     40     350/ 14/ 16   N/A
BURNS HARBOR      40      20/ 10/ 11 1016.9S
SAINT JOSEPH      42     340/  9/ 11 1016.3R
MICHIGAN CITY     40 45   20/ 12/ 16   N/A           3/ 5

$$
&&



USA.gov is the U.S. government's official web portal to all federal, state and local government web resources and services.